Location: Unspecified
(0.0000°N, 0.0000°E)
Time: 21:41:07
(UTC+02:00)

ITAMSAT 1 - Visible Passes

Search period start: 19 April 2018 00:00
Search period end: 29 April 2018 00:00
Orbit: 784 x 797 km, 98.9° (Epoch: 18 April)

Date Brightness Start Highest point End Pass type
(mag) Time Alt. Az. Time Alt. Az. Time Alt. Az.
19 Apr 9.3 05:49:24 10° N 05:51:22 24° N 05:51:22 24° N visible
20 Apr 9.9 05:20:18 10° NNE 05:21:43 18° NE 05:21:43 18° NE visible
21 Apr 9.3 06:31:01 10° NNW 06:32:48 18° NW 06:32:48 18° NW visible
22 Apr 9.0 06:00:46 10° N 06:03:09 27° N 06:03:09 27° N visible
23 Apr 9.5 05:31:23 10° NNE 05:33:29 25° NNE 05:33:29 25° NNE visible
24 Apr 10.3 05:02:50 10° NE 05:03:49 15° NE 05:03:49 15° NE visible
24 Apr 9.4 06:42:58 10° NW 06:44:33 15° NW 06:44:33 15° NW visible
25 Apr 8.9 06:12:16 10° N 06:14:54 27° NNW 06:14:54 27° NNW visible
26 Apr 9.0 05:42:35 10° NNE 05:45:13 31° NNE 05:45:13 31° NNE visible
27 Apr 9.8 05:13:43 10° NE 05:15:33 21° NE 05:15:33 21° NE visible
27 Apr 9.6 06:55:21 10° NW 06:56:17 12° WNW 06:56:17 12° WNW visible
28 Apr 8.9 06:23:53 10° NNW 06:26:37 24° NW 06:26:37 24° NW visible
